SL-16 DEB, 22645

Orbit data source: Space-Track

SL-16 DEB, 22645 is space debris in LEO originally from a launch on Fri, 26 Mar 1993 UTC launched from the Tyuratam Missile And Space Complex (TTMTR). Debris objects in space refer to the collection of defunct objects orbiting the Earth. Examples of debris include non-operational satellites, rocket bodies, and fragments generated from explosions, collisions, or faulty payload assembly.

Loading next visibility...
Identifier
22645, 1993-016AF
Orbit
LEO
Country
Flag of CISCIS
Related business
Manufacturer
Unknown
Mission
Spacecraft
Bus & Motor
Unknown
Mass
Unknown
Launch date (UTC)
1993-03-26 (33 years ago)
Launch vehicle
Unknown
Launch site
Tyuratam Missile And Space Complex (TTMTR)
Object type
Payload
Rocket body
Debris
Shape & HBR
Unknown shape, 0.1 m
Radar Cross Section
Small (<0.1 m²)

Expand to show TLE details & history
Last TLE update: 16 hours ago

TLE from 16 hours ago
0 SL-16 DEB
1 22645U 93016AF  25304.76139209  .00000906  00000-0  73325-3 0  9997
2 22645  70.9843  83.9096 0170712 310.9798  47.6645 13.86330062640679
Epoch: 2025-10-31T18:16Z
TLE epoch observation values (Epoch: 2025-10-31T18:16:24.276Z)
Latitude
0.00001°
Longitude
129.50727°
Altitude
860.909 km
Speed
7.464 km/s
True Right ascension
05h 35m 38s
True Declination
0° 00' 00"
Sunlit
Object was in full shadow at epoch
Visualization orbit readout
Latitude
Unknown
Longitude
Unknown
Altitude
Unknown
Speed
Unknown
Apparent Right ascension
Unknown
Apparent Declination
Unknown
Sunlit
N/A
Visualization observer readout
Local Sidereal Time
06:09:05
Azimuth
Unknown
Elevation
Unknown
Doppler factor
Unknown
Orbital elements
Apogee altitude
1,064.394 km
Perigee altitude
814.554 km
Semi-major axis
7,317.611 km
Eccentricity
0.01707
Inclination
70.9843°
RAAN
83.9096°
Arg. of periapsis
310.9798°
True anomaly
49.13147°
Mean anomaly
47.6645°
Eccentric anomaly
48.39588°
Mean motion
3.46728 °/min
Orbital period
103.83 mins
BSTAR
0.00073325
Loading maneuver chart data...
Computing Atmospheric mass density...
Loading historical data...
Loading historical data...
Loading historical data...
Loading historical data...
Loading historical data...
Loading historical data...
Loading historical data...

Documentation

Showing up to 5 results
|